Location: Nitra
(0.0000°N, 18.0833°E)
Time: 05:33:42
(UTC+01:00)

ARGOS - Pass Details

Date: 24 January 2021
Orbit: 821 x 834 km, 98.4° (Epoch: 04 March)

Event Time Altitude Azimuth Distance (km) Brightness Sun altitude
Rises 18:42:41 0° 149° (SSE) 3,350 6.2 -10.1°
Reaches altitude 10° 18:45:16 10° 139° (SE) 2,415 5.4 -10.7°
Maximum altitude 18:49:58 32° 77° (ENE) 1,388 3.8 -11.8°
Drops below altitude 10° 18:54:37 10° 16° (NNE) 2,407 5.2 -12.9°
Sets 18:57:11 0° 6° (N) 3,338 6.0 -13.5°
